• In Russia
  • List of Countries
  • For 7 days
  • Water Temperature
  • Satellite Maps
  • Weather Map
  • Weather Widgets
  • user-avatar
    Login

    Hourly Weather Bregenz

    Today, 5 December, Monday

    Time Temperature Precipitation Wind Pressure Humidity
    00:00 -6°C° 0 mm 1 mps 648 mmHg 84%
    01:00 -6°C° 0 mm 1 mps 648 mmHg 83%
    02:00 -6°C° 0 mm 1 mps 648 mmHg 83%
    03:00 -6°C° 0 mm 1 mps 648 mmHg 83%
    04:00 -6°C° 0 mm 1 mps 648 mmHg 82%
    05:00 -6°C° 0 mm 1 mps 648 mmHg 82%
    06:00 -6°C° 0 mm 1 mps 648 mmHg 82%
    07:00 -7°C° 0 mm 1 mps 648 mmHg 79%
    08:00 -4°C° 0 mm 1 mps 649 mmHg 74%
    09:00 -2°C° 0 mm 1 mps 649 mmHg 68%
    10:00 -1°C° 0 mm 1 mps 650 mmHg 63%
    11:00 +1°C° 0 mm 1 mps 650 mmHg 60%
    12:00 +2°C° 0 mm 1 mps 650 mmHg 57%
    13:00 +3°C° 0 mm 1 mps 650 mmHg 54%
    14:00 +1°C° 0 mm 1 mps 650 mmHg 62%
    15:00 -2°C° 0 mm 0 mps 649 mmHg 71%
    16:00 -4°C° 0 mm 0 mps 648 mmHg 80%
    17:00 -4°C° 0 mm 0 mps 648 mmHg 81%
    18:00 -5°C° 0 mm 0 mps 648 mmHg 82%
    19:00 -6°C° 0 mm 0 mps 648 mmHg 84%
    20:00 -6°C° 0 mm 0 mps 648 mmHg 83%
    21:00 -6°C° 0 mm 0 mps 648 mmHg 81%
    22:00 -6°C° 0 mm 0 mps 649 mmHg 80%
    23:00 -6°C° 0 mm 0 mps 649 mmHg 80%

    Tomorrow, 6 December, Tuesday

    Time Temperature Precipitation Wind Pressure Humidity
    00:00 -6°C° 0 mm 0 mps 649 mmHg 80%
    01:00 -6°C° 0 mm 0 mps 649 mmHg 79%
    02:00 -6°C° 0 mm 0 mps 649 mmHg 79%
    03:00 -6°C° 0 mm 0 mps 649 mmHg 79%
    04:00 -6°C° 0 mm 0 mps 649 mmHg 79%
    05:00 -6°C° 0 mm 0 mps 649 mmHg 79%
    06:00 -6°C° 0 mm 0 mps 649 mmHg 79%
    07:00 -6°C° 0 mm 1 mps 649 mmHg 79%
    08:00 -3°C° 0 mm 1 mps 650 mmHg 74%
    09:00 -1°C° 0 mm 1 mps 651 mmHg 69%
    10:00 +1°C° 0 mm 1 mps 652 mmHg 63%
    11:00 +2°C° 0 mm 1 mps 652 mmHg 61%
    12:00 +2°C° 0 mm 0 mps 652 mmHg 59%
    13:00 +3°C° 0 mm 0 mps 652 mmHg 57%
    14:00 +1°C° 0 mm 0 mps 652 mmHg 67%
    15:00 0°C° 0 mm 1 mps 651 mmHg 77%
    16:00 -2°C° 0 mm 1 mps 650 mmHg 87%
    17:00 -3°C° 0 mm 1 mps 651 mmHg 87%
    18:00 -4°C° 0 mm 1 mps 651 mmHg 86%
    19:00 -4°C° 0 mm 1 mps 651 mmHg 86%
    20:00 -4°C° 0 mm 1 mps 651 mmHg 81%
    21:00 -4°C° 0 mm 1 mps 651 mmHg 76%
    22:00 -4°C° 0 mm 1 mps 651 mmHg 71%
    23:00 -4°C° 0 mm 1 mps 651 mmHg 67%

    Day after tomorrow, 7 December, Wednesday

    Time Temperature Precipitation Wind Pressure Humidity
    00:00 -4°C° 0 mm 1 mps 651 mmHg 64%
    01:00 -4°C° 0 mm 1 mps 651 mmHg 60%
    02:00 -4°C° 0 mm 1 mps 651 mmHg 58%
    03:00 -4°C° 0 mm 1 mps 651 mmHg 55%
    04:00 -4°C° 0 mm 1 mps 651 mmHg 53%
    05:00 -4°C° 0 mm 1 mps 651 mmHg 51%
    06:00 -4°C° 0 mm 1 mps 651 mmHg 50%
    07:00 -4°C° 0 mm 1 mps 651 mmHg 48%
    08:00 -3°C° 0 mm 1 mps 652 mmHg 47%
    09:00 -1°C° 0 mm 1 mps 652 mmHg 46%
    10:00 +1°C° 0 mm 1 mps 653 mmHg 45%
    11:00 +2°C° 0 mm 1 mps 653 mmHg 46%
    12:00 +3°C° 0 mm 1 mps 654 mmHg 47%
    13:00 +4°C° 0 mm 0 mps 654 mmHg 47%
    14:00 +1°C° 0 mm 0 mps 653 mmHg 54%
    15:00 0°C° 0 mm 1 mps 652 mmHg 62%
    16:00 -2°C° 0 mm 1 mps 652 mmHg 69%
    17:00 -3°C° 0 mm 1 mps 652 mmHg 69%
    18:00 -3°C° 0 mm 1 mps 652 mmHg 68%
    19:00 -3°C° 0 mm 1 mps 652 mmHg 68%
    20:00 -3°C° 0 mm 1 mps 652 mmHg 67%
    21:00 -3°C° 0 mm 1 mps 652 mmHg 65%
    22:00 -3°C° 0 mm 1 mps 652 mmHg 64%
    23:00 -3°C° 0 mm 1 mps 652 mmHg 62%

    8 December, Thursday

    Time Temperature Precipitation Wind Pressure Humidity
    00:00 -3°C° 0 mm 1 mps 652 mmHg 61%
    01:00 -3°C° 0 mm 1 mps 652 mmHg 60%
    02:00 -5°C° 0 mm 2 mps 652 mmHg 60%
    03:00 -5°C° 0 mm 2 mps 652 mmHg 60%
    04:00 -5°C° 0 mm 2 mps 652 mmHg 60%
    05:00 -5°C° 0 mm 2 mps 652 mmHg 57%
    06:00 -4°C° 0 mm 2 mps 653 mmHg 55%
    07:00 -4°C° 0 mm 2 mps 653 mmHg 52%
    08:00 -3°C° 0 mm 2 mps 653 mmHg 50%
    09:00 -1°C° 0 mm 2 mps 654 mmHg 48%
    10:00 +1°C° 0 mm 2 mps 654 mmHg 46%
    11:00 +3°C° 0 mm 1 mps 654 mmHg 47%
    12:00 +5°C° 0 mm 1 mps 655 mmHg 48%
    13:00 +6°C° 0 mm 1 mps 655 mmHg 48%
    14:00 +4°C° 0 mm 1 mps 654 mmHg 51%
    15:00 +2°C° 0 mm 1 mps 653 mmHg 53%
    16:00 0°C° 0 mm 1 mps 653 mmHg 55%
    17:00 -1°C° 0 mm 1 mps 653 mmHg 54%
    18:00 -1°C° 0 mm 1 mps 653 mmHg 54%
    19:00 -1°C° 0 mm 1 mps 653 mmHg 53%
    20:00 -1°C° 0 mm 1 mps 653 mmHg 52%
    21:00 -1°C° 0 mm 1 mps 653 mmHg 51%
    22:00 -1°C° 0 mm 1 mps 653 mmHg 50%
    23:00 -2°C° 0 mm 1 mps 653 mmHg 47%

    9 December, Friday

    Time Temperature Precipitation Wind Pressure Humidity
    00:00 -2°C° 0 mm 1 mps 653 mmHg 45%
    01:00 -2°C° 0 mm 1 mps 653 mmHg 42%
    02:00 -2°C° 0 mm 1 mps 653 mmHg 41%
    03:00 -2°C° 0 mm 1 mps 653 mmHg 40%
    04:00 -2°C° 0 mm 1 mps 653 mmHg 40%
    05:00 -2°C° 0 mm 1 mps 652 mmHg 40%
    06:00 -2°C° 0 mm 1 mps 652 mmHg 41%
    07:00 -2°C° 0 mm 1 mps 652 mmHg 41%
    08:00 -1°C° 0 mm 1 mps 653 mmHg 39%
    09:00 +1°C° 0 mm 1 mps 653 mmHg 37%
    10:00 +3°C° 0 mm 1 mps 654 mmHg 35%
    11:00 +5°C° 0 mm 1 mps 654 mmHg 37%
    12:00 +5°C° 0 mm 0 mps 654 mmHg 40%
    13:00 +7°C° 0 mm 0 mps 654 mmHg 42%
    14:00 +4°C° 0 mm 0 mps 653 mmHg 44%
    15:00 +1°C° 0 mm 0 mps 652 mmHg 45%
    16:00 -1°C° 0 mm 0 mps 651 mmHg 47%
    17:00 -2°C° 0 mm 0 mps 651 mmHg 51%
    18:00 -2°C° 0 mm 0 mps 650 mmHg 55%
    19:00 -3°C° 0 mm 0 mps 650 mmHg 59%
    20:00 -2°C° 0 mm 1 mps 650 mmHg 56%
    21:00 -1°C° 0 mm 1 mps 650 mmHg 54%
    22:00 -1°C° 0 mm 1 mps 650 mmHg 51%
    23:00 -1°C° 0 mm 1 mps 650 mmHg 50%

    10 December, Saturday

    Time Temperature Precipitation Wind Pressure Humidity
    00:00 -3°C° 0 mm 2 mps 650 mmHg 49%
    01:00 -2°C° 0 mm 2 mps 650 mmHg 49%
    02:00 -2°C° 0 mm 2 mps 650 mmHg 49%
    03:00 -2°C° 0 mm 2 mps 650 mmHg 50%
    04:00 -3°C° 0 mm 2 mps 650 mmHg 51%
    05:00 -3°C° 0 mm 2 mps 650 mmHg 52%
    06:00 -3°C° 0 mm 2 mps 650 mmHg 53%
    07:00 -3°C° 0 mm 2 mps 650 mmHg 53%
    08:00 -2°C° 0 mm 2 mps 650 mmHg 52%
    09:00 +1°C° 0 mm 2 mps 650 mmHg 51%
    10:00 +2°C° 0 mm 2 mps 651 mmHg 50%
    11:00 +3°C° 0 mm 2 mps 651 mmHg 51%
    12:00 +6°C° 0 mm 1 mps 651 mmHg 52%
    13:00 +7°C° 0 mm 1 mps 651 mmHg 53%
    14:00 +5°C° 0 mm 1 mps 650 mmHg 59%
    15:00 +3°C° 0 mm 1 mps 649 mmHg 64%
    16:00 +1°C° 0 mm 1 mps 648 mmHg 70%
    17:00 0°C° 0 mm 1 mps 648 mmHg 68%
    18:00 0°C° 0 mm 1 mps 648 mmHg 67%
    19:00 -3°C° 0 mm 2 mps 648 mmHg 66%
    20:00 -3°C° 0 mm 2 mps 648 mmHg 64%
    21:00 -2°C° 0 mm 2 mps 648 mmHg 62%
    22:00 -2°C° 0 mm 2 mps 648 mmHg 60%
    23:00 -2°C° 0 mm 2 mps 647 mmHg 61%
    Show more